184  
FPUS83 KFGF 162231  
OPUFGF  
PRAIRIE TO PINES WEATHER ROUNDUP  
NATIONAL WEATHER SERVICE EASTERN NORTH DAKOTA/GRAND FORKS ND  
500 PM CDT MON SEP 16 2019  
 
**SATELLITE DATA USED TO AUGMENT SKY COVER AT AUTOMATED STATIONS**  
***** WEATHER ACROSS EASTERN NORTH DAKOTA *****  
 
CITY SKY/WX TMP DP RH WIND PRES REMARKS  
GRAND FORKS FAIR 87 70 56 S13G29 29.72F HX 92  
GRND FORKS AFB FAIR 86 72 63 S16 29.73F HX 92  
GRND FORKS NWS N/A 86 73 64 S9 29.69S HX 93  
BUXTON N/A 85 75 70 S17 N/A HX 94  
DEVILS LAKE FAIR 84 70 61 SE9 29.72S HAZE  
FARGO FAIR 87 72 60 SE16G29 29.77S HX 93  
WAHPETON ARPT FAIR 82 70 65 SE16 29.81S  

 
 
***** WEATHER ACROSS CENTRAL AND WESTERN NORTH DAKOTA *****  
 
CITY SKY/WX TMP DP RH WIND PRES REMARKS  
JAMESTOWN FAIR 87 70 56 S14G25 29.73F HX 92  
BISMARCK FAIR 86 64 47 S16 29.69F  
MINOT FAIR 88 67 49 E8 29.66F HX 91  
MINOT AFB FAIR 87 66 49 SE7 29.64F  
GARRISON N/A 86 66 51 SE10 29.66F  
WILLISTON FAIR 89 63 41 E15 29.63F HX 90  
DICKINSON FAIR 92 54 27 SE17 29.66F HX 90  
HETTINGER FAIR 88 62 41 SE14 29.71S  

 
 
***** OTHER OBSERVATIONS NORTHEAST NORTH DAKOTA *****  
 
CITY SKY/WX TMP DP RH WIND PRES REMARKS  
WALHALLA FAIR 86 70 58 SE12 29.70F HX 90  
LANGDON NOT AVBL  
CAVALIER FAIR 86 70 58 S12G18 29.70S HX 90  
GRAFTON FAIR 86 72 62 S17G23 29.73F HX 92  
CANDO FAIR 86 68 54 SE10 29.72F  
FORT TOTTEN N/A 87 68 52 S10 29.95S HX 90  
ROLLA FAIR 84 64 51 S8 29.72F  
RUGBY FAIR 86 66 51 SE9 29.68F  
***** THE ABOVE OBSERVATIONS ARE NON NWS ARE NOT QUALITY  
CONTROLLED AND MAY MIS-REPORT RAIN FOR SNOW...  

 
 
***** OTHER OBSERVATIONS SOUTHEAST NORTH DAKOTA *****  
 
CITY SKY/WX TMP DP RH WIND PRES REMARKS  
COOPERSTOWN FAIR 90 70 51 S14G23 29.74F HX 95  
VALLEY CITY FAIR 88 68 51 S15 29.77F HX 91  
OAKES FAIR 84 70 61 S15G22 29.77F  
GWINNER CLEAR 84 72 65 S12 29.78F  
SHEYENNE NWR N/A 88 74 62 S14 29.95S HX 96  
BUFFALO NOT AVBL  
WYNDMERE NOT AVBL  
***** THE ABOVE OBSERVATIONS ARE NON NWS ARE NOT QUALITY  
CONTROLLED AND MAY MIS-REPORT RAIN FOR SNOW...  

 
 
***** WEATHER ACROSS NORTHERN MINNESOTA *****  
 
CITY SKY/WX TMP DP RH WIND PRES REMARKS  
FLAG ISLAND N/A 73 63 68 SE16 29.78F  
WARROAD N/A 84 73 70 S10G17 29.79S HX 91  
ROSEAU NOT AVBL  
HALLOCK FAIR 88 70 55 S18G24 29.72S HX 92  
THF RVR FALLS FAIR 86 69 56 S20 29.79S HX 90  
HALSTAD NOT AVBL  
FOSSTON FAIR 84 66 54 S15 29.82S  
BAUDETTE FAIR 85 68 56 S10G21 29.82F  
WASKISH N/A 82 70 65 S10G23 29.83F  
CROOKSTON FAIR 88 68 51 S23 29.75S HX 91  

 
***** WEATHER ACROSS CENTRAL AND WEST MINNESOTA *****  
 
CITY SKY/WX TMP DP RH WIND PRES REMARKS  
BEMIDJI FAIR 82 70 67 S13 29.86F  
PARK RAPIDS FAIR 84 69 60 S15 29.88F  
WADENA FAIR 82 72 69 S13G20 29.89S  
DETROIT LAKES FAIR 82 68 61 S13 29.86S  
MOORHEAD FAIR 86 72 62 S16G22 29.79S HX 92  
FERGUS FALLS FAIR 81 72 74 S12 29.83F  
ELBOW LAKE FAIR 82 74 77 SE14 29.86S  
MORRIS MN FAIR 84 72 65 SE17 29.81F  
STAPLES FAIR 81 70 69 S10G20 29.90F  
WHEATON NOT AVBL  

 
***** WEATHER ELSEWHERE ACROSS MINNESOTA *****  
 
CITY SKY/WX TMP DP RH WIND PRES REMARKS  
DULUTH FAIR 66 57 72 SE13 30.01F  
INTRNTL FALLS FAIR 83 61 47 S10G18 29.86F  
ELY FAIR 77 59 53 S8 29.98S  
CLOQUET FAIR 64 55 72 E8 30.00F  
BRAINERD FAIR 84 67 56 S14G23 29.93F  
HIBBING FAIR 79 62 56 SE12 29.95F  
ALEXANDRIA FAIR 84 71 65 SE16 29.92S  
SAINT CLOUD FAIR 84 70 62 S13 29.94S  
MINNEAPOLIS PTSUNNY 85 64 49 S12 29.98S  

 
 
***** WEATHER ACROSS SOUTH DAKOTA *****  
 
CITY SKY/WX TMP DP RH WIND PRES REMARKS  
SIOUX FALLS CLOUDY 83 71 67 SE14 29.91S  
BROOKINGS FAIR 80 72 76 S16 29.90F  
WATERTOWN FAIR 81 69 67 S14G26 29.87S  
HURON FAIR 85 69 58 S14G22 29.81F  
SISSETON N/A 87 71 58 S13 29.80F HX 93  
ABERDEEN FAIR 84 69 60 SE15G25 29.78F  
MITCHELL FAIR 85 68 56 SE14 29.84S  
PIERRE FAIR 83 62 49 SE18G25 29.71F  
MOBRIDGE FAIR 85 68 56 S12G23 29.70S  
RAPID CITY FAIR 90 43 19 S16 29.72F  

 
 
***** SOME WEATHER IN NEARBY STATES *****  
 
CITY SKY/WX TMP DP RH WIND PRES REMARKS  
GLASGOW MT FAIR N/A N/A N/A S7 29.58F  
GREAT FALLS MT FAIR 81 41 24 NE13 29.64F  
CHEYENNE WY PTSUNNY 81 29 15 W14G20 29.99F  
SCOTTSBLUFF NE FAIR 87 52 29 MISG 29.83F  
OMAHA NE CLOUDY 89 69 51 S18 29.96F HX 93  
DES MOINES IA CLOUDY 86 71 60 SE8 30.01S HX 91  
DAVENPORT IA FAIR 82 63 52 E7 30.09F  
CHICAGO IL FAIR 73 62 68 NE7 30.11S  
EAU CLAIRE WI FAIR 83 58 42 S9 30.03F  
LA CROSSE WI FAIR 85 65 51 S9 30.04F  

 
 
***** SOME NATIONAL WEATHER *****  
 
CITY SKY/WX TMP DP RH WIND PRES REMARKS  
LA GUARDIA NY CLOUDY 75 61 61 NE8 30.00S  
RALEIGH NC FAIR 88 59 37 E5 29.97R  
ATLANTA GA FAIR 95 58 28 NW10 30.01F HX 94  
NEW ORLEANS LA LGT RAIN 85 75 72 SE9 29.97F HX 93  
OKLAHOMA CITY FAIR 90 69 50 S9 30.01F HX 94  
ALBUQUERQUE NM FAIR 80 50 34 CALM 30.12F  
SALT LAKE CITY PTSUNNY 86 33 15 S25G37 29.79F  
LOS ANGELES CA FAIR 77 62 59 W12 29.89F  
BOISE ID FAIR 76 39 26 NW16G26 29.72F  
SEATTLE WA PTSUNNY 66 50 56 S9 29.82S  

 
 
*** WEATHER ACROSS MANITOBA...SASKATCHEWAN AND ONTARIO ***  
***ONTARIO***  
 
CITY SKY/WX TMP DP RH WIND PRES REMARKS  
GERALDTON MOSUNNY 75 59 57 S5 30.06S  
THUNDER BAY CLOUDY 59 57 94 E10 30.06S FOG  
SIOUX LOOKOUT MOSUNNY 79 64 61 SE5 29.91F  
TORONTO CLOUDY 61 54 77 E10 30.11S  
BIG TROUT LK SUNNY 72 46 40 CALM 29.98F  
PICKLE LAKE SUNNY 79 52 38 SE10 29.97F  
DRYDEN SUNNY 82 63 51 SE13G18 29.88F  
KENORA MOSUNNY 81 66 61 SE8 29.84F  

 
*** MANITOBA***  
 
CITY SKY/WX TMP DP RH WIND PRES REMARKS  
BRANDON MOSUNNY 79 66 65 E9 29.72S  
DAUPHIN SUNNY 84 64 51 SE17 29.70F  
ISLAND LAKE SUNNY 75 54 46 E10G17 29.90S  
PILOT MOUND N/A 84 68 58 E10 N/A  
THE PAS SUNNY 81 63 54 SE20G26 29.69F  
THOMPSON MOSUNNY 77 52 41 SE6 29.81F  
WINNIPEG MOSUNNY 86 68 54 S13 29.72F  
LYNN LAKE SUNNY 73 55 53 SE14G21 29.72F  
CHURCHILL PTSUNNY 52 48 87 E12 29.99S  
GILLAM PTSUNNY 77 52 41 S6 29.90S  

 
***SASKATCHEWAN***  
 
CITY SKY/WX TMP DP RH WIND PRES REMARKS  
ESTEVAN SUNNY 86 63 45 E14G21 29.65F  
KINDERSLEY MOSUNNY 84 54 34 NE6 29.56F  
LLOYDMINSTER PTSUNNY 72 54 53 NW9 29.60F  
PRINCE ALBERT PTSUNNY 86 59 39 SE6 29.56F  
REGINA PTSUNNY 88 59 37 SE16G25 29.61F  
YORKTON SUNNY 88 59 37 SE16G23 29.67F  
 
CLICK HERE TO GO TO PREVIOUS BULLETINS.

The Nexlab ND Page
The Nexlab MN Page Main Text Page